Regional Weather Roundup
Issued by NWS

Home | Current Version | Previous Version | Text Only | Print | Product List | Glossary On
Versions: 1 2 3 4 5 6 7 8 9 10 11 12 13 14 15 16 17 18 19 20 21 22 23 24 25 26 27 28 29 30 31 32 33 34 35 36 37 38 39 40 41 42 43 44 45 46 47 48 49 50
000
ASUS43 KLSX 182007
RWRMO

WEATHER SUMMARY FOR MISSOURI
NATIONAL WEATHER SERVICE SPRINGFIELD MO
300 PM CDT THU SEP 18 2014

NOTE: "FAIR" INDICATES FEW OR NO CLOUDS BELOW 12,000 FEET WITH NO
       SIGNIFICANT WEATHER AND/OR OBSTRUCTIONS TO VISIBILITY.
       CURRENT SKY AND/OR WEATHER CONDITIONS ARE NOT AVAILABLE FOR
       CHILLICOTHE AND FARMINGTON.

MOZ001>031-035>038-043-044-053-054-182100-
...NORTHERN AND WESTERN MISSOURI...

CITY           SKY/WX    TMP DP  RH WIND       PRES   REMARKS
KANSAS CTY INT CLOUDY    65  60  84 E10       30.02S
KANSAS C DTWN  CLOUDY    67  61  81 NE12      30.00F
LEE`S SUMMIT   CLOUDY    66  62  87 E7        30.01F
ST JOSEPH      CLOUDY    65  59  81 E7        30.02F
CHILLICOTHE      N/A     71  60  68 E8        30.04F
KIRKSVILLE     CLOUDY    70  58  65 E10       30.05F

$$
MOZ066>068-077>081-088>096-101>105-182100-
...SOUTHWEST MISSOURI...

CITY           SKY/WX    TMP DP  RH WIND       PRES   REMARKS
SPRINGFIELD    CLOUDY    74  62  66 E10       29.99S
JOPLIN         CLOUDY    75  65  70 E8        29.97F

$$
MOZ032>034-039>042-045>050-055>058-069>072-182100-
...CENTRAL MISSOURI...

CITY           SKY/WX    TMP DP  RH WIND       PRES   REMARKS
COLUMBIA       CLOUDY    72  60  66 E9        30.02F
JEFFERSON CITY MOSUNNY   74  59  59 SE8       30.00F
ROLLA          PTSUNNY   70  59  68 E9        30.01S
SEDALIA        PTSUNNY   70  62  76 E9        30.01F
WHITEMAN AFB   CLOUDY    67  62  82 E7        30.00S
OSAGE BEACH    CLOUDY    70  61  73 E7        30.01S

$$
MOZ051-052-059>065-182100-
...EAST CENTRAL MISSOURI...

CITY           SKY/WX    TMP DP  RH WIND       PRES   REMARKS
ST LOUIS INTL  MOSUNNY   73  55  53 E7        30.04F
SPIRIT OF STL  MOSUNNY   73  57  57 E6        30.01F
ST CHARLES     SUNNY     74  54  49 E12       30.02F

$$
MOZ072>076-082>087-097>100-106>115-182100-
...SOUTH CENTRAL AND SOUTHEAST MISSOURI...

CITY           SKY/WX    TMP DP  RH WIND       PRES   REMARKS
CAPE GIRARDEAU MOSUNNY   75  59  57 E9        29.99F
FARMINGTON     MOSUNNY   73  57  56 E10       30.03F
POPLAR BLUFF   PTSUNNY   75  59  57 VRB6      29.99S
WEST PLAINS    CLOUDY    66  60  81 NE10      30.02F

$$


USA.gov is the U.S. government's official web portal to all federal, state and local government web resources and services.